Roseburg, OR

6:59 PM PDT on August 30, 2016 (GMT -0700)
Roseburg Regional

Weather History for KRBG - September, 2014

Change the Weather History Date:

Thursday, September 4, 2014

  Actual Average Record
Temperature  
Mean Temperature 68 °F 68 °F  
Max Temperature 88 °F 82 °F 102 °F (1955)
Min Temperature 48 °F 53 °F 41 °F (1958)
Degree Days  
Heating Degree Days 0 1  
Month to date heating degree days 0 4  
Since 1 July heating degree days 7 25  
Cooling Degree Days 3 4  
Month to date cooling degree days 15 16  
Year to date cooling degree days 748 427  
Growing Degree Days 18 (Base 50)    
Moisture  
Dew Point 43 °F    
Average Humidity 48    
Maximum Humidity 77    
Minimum Humidity 19    
Precipitation  
Precipitation 0.00 in 0.02 in 0.45 in (1978)
Month to date precipitation 0.00 0.09  
Year to date precipitation 16.65 19.74  
Sea Level Pressure  
Sea Level Pressure 30.04 in    
Wind  
Wind Speed 5 mph (North)    
Max Wind Speed 18 mph    
Max Gust Speed 25 mph    
Visibility 10 miles    
Events      
T = Trace of Precipitation, MM = Missing Value Source: NWS Daily Summary

Daily Weather History Graph

Daily Weather History Graph

Search for Another Location

Airport or City:

Trip Planner

Search our weather history database for the weather conditions in past years. The results will help you decide how hot, cold, wet, or windy it might be!

Date:

Astronomy

Sep. 04, 2014 Rise Set
Actual Time 6:40 AM PDT 7:42 PM PDT
Civil Twilight 6:11 AM PDT 8:12 PM PDT
Nautical Twilight 5:37 AM PDT 8:46 PM PDT
Astronomical Twilight 5:00 AM PDT 9:23 PM PDT
Moon 4:30 PM PDT (9/4) 1:32 AM PDT (9/4)
Length of Visible Light 14h 00m
Length of Day
13h 01m
Waxing Gibbous, 75% of the Moon is Illuminated
Sep 4
Waxing Gibbous
Sep 8
Full
Sep 15
Last Quarter
Sep 23
New
Oct 1
First Quarter

Hourly Weather History & Observations

Time (PDT) Temp. Dew Point Humidity Pressure Visibility Wind Dir Wind Speed Gust Speed Precip Events Conditions
12:53 AM 61.0 °F 43.0 °F 52% 30.47 in 10.0 mi Calm Calm - N/A   Clear
1:53 AM 60.1 °F 43.0 °F 53% 30.46 in 10.0 mi Calm Calm - N/A   Clear
2:53 AM 54.0 °F 43.0 °F 66% 30.45 in 10.0 mi Calm Calm - N/A   Clear
3:53 AM 52.0 °F 42.1 °F 69% 30.45 in 10.0 mi Calm Calm - N/A   Clear
5:53 AM 50.0 °F 42.1 °F 74% 30.42 in 10.0 mi Calm Calm - N/A   Clear
6:53 AM 48.0 °F 41.0 °F 77% 30.32 in 10.0 mi Calm Calm - N/A   Clear
7:53 AM 51.1 °F 43.0 °F 74% 30.13 in 10.0 mi Calm Calm - N/A   Clear
8:53 AM 57.0 °F 45.0 °F 64% 30.05 in 10.0 mi North 6.9 mph - N/A   Clear
9:53 AM 61.0 °F 44.1 °F 54% 30.00 in 10.0 mi Calm Calm - N/A   Clear
10:53 AM 64.0 °F 45.0 °F 50% 29.98 in 10.0 mi SW 3.5 mph - N/A   Clear
11:53 AM 71.1 °F 44.1 °F 38% 29.95 in 10.0 mi NNE 5.8 mph - N/A   Clear
12:53 PM 75.9 °F 44.1 °F 32% 29.92 in 10.0 mi NNE 9.2 mph - N/A   Clear
1:53 PM 82.0 °F 42.1 °F 24% 29.90 in 10.0 mi NNE 10.4 mph - N/A   Clear
2:53 PM 84.0 °F 41.0 °F 22% 29.87 in 10.0 mi North 11.5 mph 19.6 mph N/A   Clear
3:53 PM 86.0 °F 39.9 °F 20% 29.85 in 10.0 mi North 12.7 mph 18.4 mph N/A   Clear
4:53 PM 87.1 °F 41.0 °F 20% 29.83 in 10.0 mi North 19.6 mph 24.2 mph N/A   Clear
5:53 PM 87.1 °F 43.0 °F 21% 29.82 in 10.0 mi North 15.0 mph 19.6 mph N/A   Clear
6:53 PM 84.0 °F 43.0 °F 24% 29.83 in 10.0 mi NNW 10.4 mph - N/A   Clear
7:53 PM 82.0 °F 44.1 °F 26% 29.83 in 10.0 mi North 11.5 mph 19.6 mph N/A   Clear
8:53 PM 79.0 °F 44.1 °F 29% 29.84 in 10.0 mi North 6.9 mph - N/A   Clear
9:53 PM 75.9 °F 44.1 °F 32% 29.86 in 10.0 mi North 4.6 mph - N/A   Clear
10:53 PM 73.0 °F 44.1 °F 35% 29.86 in 10.0 mi Calm Calm - N/A   Clear
11:53 PM 70.0 °F 44.1 °F 39% 29.87 in 10.0 mi Calm Calm - N/A   Clear